COSMOS 2251 DEB, 38220

Orbit data source: Space-Track

COSMOS 2251 DEB, 38220 is space debris in LEO originally from a launch on Wed, 16 Jun 1993 UTC launched from the Plesetsk Missile And Space Complex (PKMTR). The debris from Iridium 33, an American commercial communications satellite, has been tracked extensively since its accidental collision with the defunct Russian satellite Cosmos 2251 in 2009. This event, occurring at high speed in low Earth orbit (LEO), generated thousands of pieces of space debris, significantly increasing the risk of further collisions. The Iridium 33 debris cloud has impacted space traffic management and orbital debris mitigation strategies, making it a subject of ongoing study in space situational awareness.

Loading next visibility...
Identifier
38220, 1993-036BTL
Orbit
LEO
Country
Flag of CISCIS
Related business
Manufacturer
Unknown
Mission
Spacecraft
Bus & Motor
Unknown
Mass
Unknown
Launch date (UTC)
1993-06-16 (32 years ago)
Launch vehicle
Unknown
Launch site
Plesetsk Missile And Space Complex (PKMTR)
Object type
Payload
Rocket body
Debris
Shape & HBR
Unknown shape, 0.1 m
Radar Cross Section
Small (<0.1 m²)

Expand to show TLE details & history
Last TLE update: 4 days ago

TLE from 4 days ago
0 COSMOS 2251 DEB
1 38220U 93036BTL 25300.01522714  .00015946  00000-0  16924-2 0  9997
2 38220  74.0145 162.0201 0009487 204.7782 155.2945 14.89022470706740
Epoch: 2025-10-27T00:21Z
TLE epoch observation values (Epoch: 2025-10-27T00:21:55.624Z)
Latitude
-0.00001°
Longitude
120.91519°
Altitude
609.679 km
Speed
7.551 km/s
True Right ascension
10h 48m 04s
True Declination
0° 00' 00"
Sunlit
Object was in daylight at epoch
Visualization orbit readout
Latitude
Unknown
Longitude
Unknown
Altitude
Unknown
Speed
Unknown
Apparent Right ascension
Unknown
Apparent Declination
Unknown
Sunlit
N/A
Visualization observer readout
Local Sidereal Time
08:46:09
Azimuth
Unknown
Elevation
Unknown
Doppler factor
Unknown
Orbital elements
Apogee altitude
605.175 km
Perigee altitude
591.937 km
Semi-major axis
6,976.693 km
Eccentricity
0.00095
Inclination
74.0145°
RAAN
162.0201°
Arg. of periapsis
204.7782°
True anomaly
155.33989°
Mean anomaly
155.2945°
Eccentric anomaly
155.3172°
Mean motion
3.72451 °/min
Orbital period
96.66 mins
BSTAR
0.0016924

Documentation

Showing up to 5 results
|